| time (UTC) | temp F | wind direction | speed knots | gust knots | rain 1hr in | rain 24hr in | rain mn in | humidity % | barometer mb |
| 20260510181954 | 52 | 38 | 8.7 | 14.8 | 0.00 | 0.00 | 0.00 | 56 | 1016.3 |
| 20260510175108 | 53 | 24 | 9.6 | 16.5 | 0.00 | 0.00 | 0.00 | 56 | 1016.4 |
| 20260510172157 | 54 | 32 | 10.4 | 16.5 | 0.00 | 0.00 | 0.00 | 54 | 1016.4 |
| 20260510165103 | 56 | 15 | 10.4 | 19.1 | 0.00 | 0.00 | 0.00 | 52 | 1016.8 |
| 20260510162159 | 58 | 54 | 9.6 | 17.4 | 0.00 | 0.00 | 0.00 | 50 | 1016.8 |
| 20260510155235 | 57 | 50 | 9.6 | 16.5 | 0.00 | 0.00 | 0.00 | 53 | 1017.2 |
| 20260510152337 | 58 | 24 | 8.7 | 17.4 | 0.00 | 0.00 | 0.00 | 51 | 1017.4 |
| 20260510145430 | 57 | 55 | 11.3 | 17.4 | 0.00 | 0.00 | 0.00 | 51 | 1017.8 |
| 20260510142500 | 58 | 43 | 10.4 | 20.0 | 0.00 | 0.00 | 0.00 | 54 | 1018.0 |
| 20260510135507 | 58 | 69 | 10.4 | 15.6 | 0.00 | 0.00 | 0.00 | 55 | 1018.4 |
| 20260510132505 | 58 | 28 | 10.4 | 19.1 | 0.00 | 0.00 | 0.00 | 56 | 1018.4 |
| 20260510125507 | 57 | 33 | 11.3 | 18.2 | 0.00 | 0.00 | 0.00 | 57 | 1018.7 |
| 20260510122446 | 56 | 38 | 11.3 | 16.5 | 0.00 | 0.00 | 0.00 | 61 | 1018.9 |
| 20260510115600 | 55 | 5 | 11.3 | 17.4 | 0.00 | 0.00 | 0.00 | 62 | 1019.4 |
| 20260510112520 | 55 | 25 | 10.4 | 17.4 | 0.00 | 0.00 | 0.00 | 64 | 1019.5 |
| 20260510105400 | 54 | 34 | 10.4 | 16.5 | 0.00 | 0.00 | 0.00 | 67 | 1019.9 |
| 20260510102316 | 55 | 26 | 12.2 | 19.1 | 0.00 | 0.00 | 0.00 | 69 | 1019.9 |
| 20260510095306 | 56 | 16 | 11.3 | 18.2 | 0.00 | 0.00 | 0.00 | 68 | 1019.9 |
| 20260510092145 | 55 | 55 | 10.4 | 18.2 | 0.00 | 0.00 | 0.00 | 72 | 1020.2 |
| 20260510085202 | 52 | 38 | 7.8 | 13.9 | 0.00 | 0.00 | 0.00 | 75 | 1020.5 |
| 20260510082220 | 52 | 63 | 9.6 | 15.6 | 0.00 | 0.00 | 0.00 | 77 | 1020.5 |
| 20260510075210 | 52 | 41 | 9.6 | 14.8 | 0.00 | 0.00 | 0.00 | 79 | 1020.5 |
| 20260510072213 | 51 | 24 | 7.0 | 13.0 | 0.00 | 0.00 | 0.00 | 81 | 1020.4 |
| 20260510065130 | 52 | 30 | 7.0 | 12.2 | 0.00 | 0.00 | 0.00 | 83 | 1020.1 |
| 20260510062045 | 51 | 17 | 7.0 | 12.2 | 0.00 | 0.00 | 0.00 | 84 | 1020.0 |
| 20260510054923 | 50 | 27 | 6.1 | 11.3 | 0.00 | 0.00 | 0.00 | 85 | 1019.9 |
| 20260510044821 | 49 | 13 | 5.2 | 8.7 | 0.00 | 0.00 | 0.00 | 89 | 1020.0 |
| 20260510041840 | 48 | 28 | 4.3 | 6.1 | 0.00 | 0.00 | 0.00 | 89 | 1020.0 |
| 20260510034925 | 47 | 13 | 3.5 | 6.1 | 0.00 | 0.00 | 0.00 | 89 | 1020.1 |
| 20260510031835 | 47 | 16 | 3.5 | 6.1 | 0.00 | 0.00 | 0.00 | 89 | 1020.0 |
| 20260510024959 | 48 | 30 | 3.5 | 4.3 | 0.00 | 0.00 | 0.00 | 88 | 1020.4 |
| 20260510021845 | 48 | 28 | 4.3 | 9.6 | 0.00 | 0.00 | 0.00 | 89 | 1020.3 |
| 20260510014941 | 48 | 18 | 4.3 | 7.8 | 0.00 | 0.00 | 0.00 | 89 | 1020.5 |
| 20260510012025 | 48 | 15 | 3.5 | 6.1 | 0.00 | 0.00 | 0.00 | 89 | 1020.5 |
| 20260510004919 | 48 | 5 | 4.3 | 7.0 | 0.00 | 0.00 | 0.00 | 89 | 1020.5 |
| 20260510002039 | 48 | 10 | 5.2 | 7.0 | 0.00 | 0.00 | 0.00 | 88 | 1020.5 |
| 20260509234959 | 48 | 10 | 4.3 | 7.0 | 0.00 | 0.00 | 0.00 | 86 | 1020.5 |
| 20260509231900 | 49 | 19 | 4.3 | 6.1 | 0.00 | 0.00 | 0.00 | 85 | 1020.9 |
| 20260509224956 | 50 | 20 | 4.3 | 6.1 | 0.00 | 0.00 | 0.00 | 83 | 1020.7 |
| 20260509221934 | 50 | 15 | 5.2 | 8.7 | 0.00 | 0.00 | 0.00 | 82 | 1020.4 |
| 20260509214953 | 51 | 24 | 7.0 | 12.2 | 0.00 | 0.00 | 0.00 | 81 | 1020.2 |
| 20260509212032 | 52 | 15 | 7.8 | 12.2 | 0.00 | 0.00 | 0.00 | 78 | 1019.9 |
| 20260509204924 | 53 | 11 | 5.2 | 8.7 | 0.00 | 0.00 | 0.00 | 59 | 1019.6 |
| 20260509201804 | 55 | 22 | 4.3 | 7.8 | 0.00 | 0.00 | 0.00 | 53 | 1019.5 |
| 20260509194903 | 58 | 32 | 3.5 | 6.1 | 0.00 | 0.00 | 0.00 | 48 | 1019.0 |
| 20260509191937 | 60 | 33 | 4.3 | 7.8 | 0.00 | 0.00 | 0.00 | 45 | 1018.9 |
| 20260509184817 | 62 | 48 | 7.8 | 11.3 | 0.00 | 0.00 | 0.00 | 42 | 1018.4 |